Flag for Argentina Weather past 2 weeks in Salta, Salta, Argentina

Now
70 °F

Partly sunny.


Feels Like: 70 °F
Forecast: 56 / 72 °F
Wind: 18 mph from Southeast

Location: Salta Aerodrome

Current Time: Mar 31, 2015 at 2:27:06 PM

Latest Report: Mar 31, 2015 at 1:00 PM


Visibility: N/A

Pressure: 30.21 "Hg

Humidity: 73%

Dew point: 61 °F

Location of SaltaLocation

Historic Weather in Salta — Graph

°F

Salta temperature yesterday

Maximum temperature yesterday: 79 °F (at 3:00 PM)
Minimum temperature yesterday: 59 °F (at 12:00 AM)
Average temperature yesterday: 66 °F

Past Weeks' High & Low Weather Summary

 TemperatureHumidityPressure
High86 °F (Mar 20, 4:00 PM)100% (Mar 17, 11:00 AM)30.30 "Hg (Mar 17, 11:00 AM)
Low50 °F (Mar 28, 7:00 AM)39% (Mar 29, 5:00 PM)29.95 "Hg (Mar 30, 3:00 PM)
Average64 °F86%30.14 "Hg
* Reported Mar 16 1:00 PM — Mar 31 1:00 PM, Salta, Weather by CustomWeather, © 2015

Note: Actual official high and low records may vary slightly from our data, if they occured in-between our weather recording intervals... More about our weather records

Advertising

Salta weather history for previous 24 hours

 ConditionsComfort  
Time TempWeatherWind HumidityBarometerVisibility
1:00 PM
Tue, Mar 31
70 °FPartly sunny.18 mph73%30.21 "HgN/A
12:00 PM72 °FScattered clouds.3 mph69%30.21 "HgN/A
11:00 AM70 °FScattered clouds.3 mph78%30.21 "HgN/A
10:00 AM64 °FScattered clouds.No wind88%30.21 "HgN/A
9:00 AM61 °FScattered clouds.2 mph94%30.18 "HgN/A
8:00 AM61 °FScattered clouds.6 mph88%30.15 "HgN/A
7:00 AM61 °FScattered clouds.5 mph94%30.12 "HgN/A
6:00 AM61 °FClear.No wind94%30.09 "Hg10 mi
1:00 AM64 °FClear.No wind88%30.09 "Hg10 mi
12:00 AM64 °FClear.2 mph88%30.09 "Hg10 mi
11:00 PM
Mon, Mar 30
66 °FClear.No wind88%30.09 "Hg10 mi
10:00 PM66 °FPassing clouds.6 mph83%30.09 "HgN/A
9:00 PM66 °FPassing clouds.7 mph83%30.07 "HgN/A
8:00 PM70 °FPassing clouds.8 mph73%30.01 "HgN/A
7:00 PM72 °FPassing clouds.10 mph69%29.98 "HgN/A
6:00 PM75 °FPassing clouds.8 mph61%29.95 "HgN/A
5:00 PM79 °FPassing clouds.6 mph51%29.95 "HgN/A
4:00 PM79 °FPassing clouds.7 mph54%29.95 "HgN/A
3:00 PM79 °FPassing clouds.2 mph48%29.95 "HgN/A
2:00 PM75 °FPassing clouds.2 mph57%29.98 "HgN/A
Weather by CustomWeather, © 2015

See weather overviewHow to use our weather pages